Location: Norton
(51.3000°N, 0.8167°E)
Time: 11:26:32
(UTC+00:00)

YAOGAN 1 - Pass Details

Date: 03 March 2021
Orbit: 618 x 620 km, 97.9° (Epoch: 16 April)

Event Time Altitude Azimuth Distance (km) Brightness Sun altitude
Rises 19:15:11 0° 189° (S) 2,886 6.0 -15.5°
Reaches altitude 10° 19:17:32 10° 199° (SSW) 1,986 5.3 -15.8°
Maximum altitude 19:21:26 33° 264° (W) 1,053 4.4 -16.4°
Drops below altitude 10° 19:25:23 10° 329° (NNW) 2,001 5.7 -17.0°
Sets 19:27:46 0° 339° (NNW) 2,912 6.5 -17.4°
